[[{"header":{"parameterUnit":"m.s-1","parameterCategory":1,"la1":30.2991,"la2":30.254,"lo1":-89.0895,"lo2":-89.0444,"dy":0.0017,"dx":0.0017,"nx":28,"ny":28,"refTime":"2026-01-06T03:00:00:Z","depth":0,"parameterNumber":2,"parameterNumberName":"U-component_of_WINDS"},"data":[0,0,0,0,0,0,0,0,0,0,0,0,0,0,0,0,0,0,0,0,0,0,0,0,0,0,0,0,0,0,0,0,0,0,0,0,0,0,0,0,0,0,0,0,0,0,0,0,0,0,0,0,0,0,0,0,0,0,0.6525,0.6526,0,0.6603,0.6604,0.6605,0.662,0.662,0.6619,0.6619,0.6699,0.6702,0.6704,0,0,0,0,0,0,0,0,0,0,0,0,0,0.6392,0.6394,0.6525,0.6526,0.6527,0.6603,0.6604,0.6605,0.662,0.662,0.6619,0.6618,0.6698,0.6701,0.6705,0,0,0,0,0,0,0,0,0,0,0,0,0,0.6457,0.6395,0.6525,0.6544,0.6546,0.6602,0.6604,0.6605,0.6621,0.662,0.6619,0.6618,0.6697,0.6701,0.6705,0.6748,0,0,0.6717,0.6719,0,0,0,0,0,0,0,0,0.6454,0.6462,0.654,0.6542,0.6545,0.6601,0.6586,0.6653,0.6621,0.6592,0.6618,0.6617,0.6667,0.6674,0.669,0.6752,0.6755,0.6718,0.672,0.6722,0.6723,0,0,0,0,0,0,0,0.6449,0.6459,0.6556,0.6541,0.6544,0.6549,0.6557,0.6599,0.6634,0.6595,0.6596,0.6605,0.6668,0.6686,0.6692,0.6757,0.6718,0.6721,0.6724,0.6725,0.686,0.6861,0,0,0,0,0,0,0.6441,0.6455,0.6553,0.6558,0.6496,0.6552,0.6561,0.6584,0.6633,0.664,0.6606,0.6605,0.668,0.6688,0.6695,0.6751,0.6722,0.6726,0.6728,0.6859,0.686,0.6861,0,0,0,0,0,0,0.6438,0.645,0.655,0.6507,0.652,0.6555,0.6581,0.6586,0.6604,0.6642,0.6648,0.6617,0.6679,0.6689,0.6735,0.6753,0.6728,0.6731,0.6857,0.6859,0.6861,0.686,0,0,0,0,0,0,0.6434,0.6448,0.6464,0.6507,0.6522,0.6588,0.6582,0.6588,0.6611,0.6611,0.6654,0.6661,0.6679,0.6729,0.6739,0.6759,0.6734,0.6856,0.6858,0.686,0.6859,0.6862,0.6864,0,0,0,0,0,0.6429,0.6461,0.6465,0.6477,0.6543,0.6589,0.6598,0.6619,0.6612,0.6629,0.6654,0.6659,0.675,0.6734,0.6745,0.6766,0.6855,0.6857,0.686,0.6858,0.6861,0.6864,0,0,0,0,0,0,0.6419,0.6467,0.6472,0.6518,0.655,0.6592,0.6614,0.6622,0.6655,0.6654,0.6679,0.6689,0.6734,0.6754,0.6736,0.6811,0.6802,0.6807,0.6796,0.68,0.6803,0.6797,0.6738,0,0,0,0,0,0.6422,0.6455,0.6495,0.6532,0.6548,0.6578,0.6599,0.6612,0.6646,0.6659,0.6687,0.672,0.6756,0.6779,0.6814,0.6862,0.6873,0.6882,0.6885,0.6887,0.6891,0.692,0.6925,0.687,0.687,0.687,0,0,0.6429,0.6459,0.6479,0.6531,0.6557,0.6592,0.6589,0.6625,0.6652,0.6665,0.671,0.6732,0.677,0.6818,0.684,0.6836,0.6909,0.689,0.6891,0.6895,0.6923,0.6928,0.6933,0.6871,0.6871,0.6871,0,0,0.646,0.6485,0.652,0.6546,0.6585,0.6606,0.6614,0.6655,0.6671,0.6716,0.6728,0.6759,0.682,0.6848,0.6869,0.6912,0.6919,0.6923,0.6937,0.6965,0.697,0.6974,0.6991,0.6996,0.6927,0.6927,0.6927,0,0.6463,0.6515,0.6537,0.6573,0.6597,0.661,0.6647,0.6671,0.672,0.6736,0.6731,0.6809,0.6836,0.6891,0.6902,0.6918,0.693,0.6918,0.6967,0.6972,0.6976,0.6992,0.6998,0.6927,0.6927,0.6927,0.6927,0,0.6519,0.6555,0.6578,0.6626,0.6652,0.6688,0.6716,0.674,0.6751,0.6772,0.682,0.6852,0.6895,0.6909,0.692,0.6966,0.6963,0.6962,0.6954,0.6981,0.6997,0.7003,0.6928,0.6928,0.6927,0.6927,0,0,0.6545,0.6605,0.6613,0.6636,0.6681,0.671,0.6747,0.6789,0.681,0.6843,0.6876,0.6928,0.6928,0.6953,0.6968,0.6992,0.7026,0.6989,0.699,0.6996,0.7081,0.7082,0.7089,0.7031,0.7032,0.7033,0.7079,0,0.6582,0.6649,0.667,0.6726,0.6761,0.6775,0.6808,0.684,0.6861,0.6894,0.6917,0.6954,0.6951,0.6966,0.6991,0.7017,0.7044,0.7013,0.7063,0.7064,0.7054,0.7097,0.7098,0.714,0.7085,0.7086,0.7087,0,0.6634,0.6669,0.6729,0.6772,0.6787,0.6816,0.6858,0.6888,0.6925,0.6939,0.6968,0.6981,0.7021,0.7009,0.7067,0.7046,0.7067,0.7083,0.7085,0.7092,0.7078,0.7106,0.7153,0.716,0.7096,0.7095,0.7095,0,0.6649,0.6711,0.6756,0.6774,0.6825,0.6845,0.6867,0.6903,0.6928,0.6964,0.698,0.702,0.7043,0.7074,0.7098,0.7087,0.7154,0.7144,0.7168,0.7167,0.7182,0.7181,0.7234,0.7193,0.7193,0.7193,0.7193,0,0.6689,0.6725,0.6763,0.6791,0.6833,0.6857,0.6898,0.6921,0.6953,0.6986,0.7,0.7031,0.706,0.7095,0.7114,0.716,0.7169,0.7182,0.7187,0.7182,0.718,0.7197,0.7195,0.7195,0.7194,0.7194,0.7194,0,0.6713,0.6739,0.6789,0.6833,0.6845,0.6875,0.6913,0.6941,0.6962,0.7004,0.7015,0.705,0.7092,0.7119,0.7172,0.7185,0.7235,0.7238,0.7223,0.7225,0.7248,0.7246,0.7316,0.7327,0.7277,0.7277,0.7277,0,0.6737,0.6766,0.6813,0.6837,0.6859,0.6896,0.6922,0.6947,0.6973,0.7018,0.7041,0.7084,0.712,0.7186,0.7217,0.7258,0.7263,0.7285,0.7269,0.7264,0.7266,0.7264,0.7268,0.7287,0.7288,0.7288,0.7288,0,0.6778,0.679,0.6826,0.6868,0.6898,0.6932,0.6966,0.6984,0.7015,0.7044,0.7088,0.7115,0.717,0.7213,0.7258,0.7281,0.7291,0.7293,0.7301,0.7296,0.7287,0.7294,0.7231,0.7291,0.7291,0.7291,0.7291,0.7291,0.6804,0.6831,0.6869,0.691,0.6938,0.697,0.6999,0.7025,0.7061,0.7109,0.7121,0.7167,0.7205,0.7266,0.729,0.7327,0.7324,0.7335,0.7338,0.7341,0.7342,0.728,0.7335,0.7334,0.7334,0.7334,0.7334,0,0.6847,0.6873,0.691,0.6957,0.699,0.6996,0.7034,0.7061,0.7101,0.7135,0.7171,0.7222,0.7264,0.7298,0.7342,0.7365,0.737,0.7375,0.7375,0.738,0.7341,0.7331,0.737,0.737,0.737,0.737,0.737,0.737,0.6873,0.692,0.6937,0.6999,0.7024,0.707,0.7091,0.7121,0.7149,0.7205,0.7241,0.7263,0.7298,0.7344,0.7384,0.7393,0.7409,0.7414,0.7424,0.7387,0.7383,0.7379,0.7369,0.7416,0.7417,0.746,0.746,0.7461]},{"header":{"parameterUnit":"m.s-1","parameterCategory":1,"la1":30.2991,"la2":30.254,"lo1":-89.0895,"lo2":-89.0444,"dy":0.0017,"dx":0.0017,"nx":28,"ny":28,"refTime":"2026-01-06T03:00:00:Z","depth":0,"parameterNumber":3,"parameterNumberName":"V-component_of_WINDS"},"data":[0,0,0,0,0,0,0,0,0,0,0,0,0,0,0,0,0,0,0,0,0,0,0,0,0,0,0,0,0,0,0,0,0,0,0,0,0,0,0,0,0,0,0,0,0,0,0,0,0,0,0,0,0,0,0,0,0,0,2.494,2.494,0,2.4918,2.4918,2.4917,2.4886,2.4886,2.4885,2.4885,2.4861,2.4861,2.4861,0,0,0,0,0,0,0,0,0,0,0,0,0,2.4955,2.4955,2.494,2.494,2.4939,2.4918,2.4918,2.4917,2.4887,2.4886,2.4885,2.4885,2.4861,2.4861,2.4861,0,0,0,0,0,0,0,0,0,0,0,0,0,2.4942,2.4955,2.494,2.4922,2.492,2.4918,2.4918,2.4917,2.4887,2.4886,2.4885,2.4884,2.4861,2.4861,2.4861,2.4875,0,0,2.486,2.486,0,0,0,0,0,0,0,0,2.4943,2.4942,2.4925,2.4923,2.4921,2.4904,2.4914,2.4903,2.4887,2.4899,2.4885,2.4884,2.4876,2.4874,2.4872,2.4874,2.4873,2.486,2.486,2.486,2.486,0,0,0,0,0,0,0,2.4944,2.4943,2.4931,2.4924,2.4922,2.4914,2.4911,2.4912,2.4892,2.4898,2.4896,2.4894,2.4875,2.4872,2.4871,2.4872,2.486,2.486,2.486,2.486,2.4885,2.4886,0,0,0,0,0,0,2.4948,2.4944,2.4932,2.493,2.493,2.4915,2.4912,2.491,2.4892,2.4889,2.4894,2.4892,2.4873,2.4871,2.487,2.4886,2.486,2.486,2.4859,2.4885,2.4886,2.4887,0,0,0,0,0,0,2.4948,2.4947,2.4933,2.4936,2.4934,2.4915,2.4914,2.491,2.4908,2.4889,2.4885,2.4895,2.4872,2.4871,2.4874,2.4885,2.4859,2.4859,2.4884,2.4885,2.4886,2.4918,0,0,0,0,0,0,2.4949,2.4947,2.4953,2.4937,2.4934,2.4937,2.4915,2.491,2.4908,2.4905,2.4889,2.4886,2.4872,2.4875,2.4874,2.4884,2.4859,2.4883,2.4884,2.4886,2.4916,2.492,2.4924,0,0,0,0,0,2.4949,2.4962,2.4953,2.4952,2.494,2.4938,2.4936,2.492,2.4909,2.4914,2.4902,2.4887,2.4884,2.4875,2.4874,2.4885,2.4882,2.4884,2.4886,2.4914,2.4919,2.4924,0,0,0,0,0,0,2.4979,2.496,2.4949,2.4957,2.495,2.4933,2.4939,2.4926,2.4921,2.4918,2.4898,2.4894,2.4901,2.4893,2.4884,2.4898,2.4881,2.4882,2.4903,2.4907,2.4911,2.4913,2.4859,0,0,0,0,0,2.4987,2.4987,2.497,2.4979,2.4975,2.4958,2.4956,2.4944,2.4935,2.4932,2.492,2.4912,2.4909,2.4908,2.4904,2.4915,2.4911,2.4921,2.4925,2.4928,2.493,2.4936,2.494,2.4893,2.4893,2.4893,0,0,2.5003,2.4992,2.4993,2.4984,2.4977,2.4978,2.4955,2.4957,2.4957,2.4932,2.4935,2.4926,2.4916,2.4923,2.4926,2.4916,2.4943,2.4931,2.4934,2.4934,2.4938,2.4943,2.4947,2.4894,2.4894,2.4893,0,0,2.5031,2.5023,2.503,2.5023,2.5013,2.5001,2.5003,2.4988,2.4981,2.4984,2.4966,2.4965,2.4961,2.4954,2.495,2.4978,2.4963,2.4977,2.4998,2.5003,2.5007,2.501,2.5021,2.5025,2.4979,2.4979,2.4979,0,2.5052,2.5053,2.5035,2.5038,2.5035,2.5013,2.5019,2.5013,2.5002,2.5,2.499,2.4985,2.4976,2.4982,2.4989,2.4986,2.4988,2.4979,2.5008,2.5011,2.5014,2.5024,2.5027,2.4981,2.498,2.498,2.498,0,2.5079,2.5079,2.5086,2.5076,2.5074,2.5079,2.5062,2.5061,2.505,2.5039,2.5043,2.5031,2.5026,2.5026,2.5014,2.503,2.5025,2.5012,2.4994,2.5021,2.5029,2.5033,2.4983,2.4982,2.4982,2.4982,0,0,2.5126,2.5107,2.511,2.5105,2.5092,2.5092,2.5096,2.5091,2.5091,2.5084,2.5087,2.5084,2.5072,2.5068,2.5055,2.506,2.5083,2.5046,2.5046,2.5054,2.5101,2.5111,2.5116,2.5073,2.5074,2.5074,2.5102,0,2.5153,2.5158,2.5143,2.5153,2.5153,2.5133,2.5136,2.5128,2.5119,2.5118,2.5107,2.5105,2.5089,2.5087,2.5091,2.5079,2.5092,2.5077,2.5076,2.5076,2.508,2.512,2.5131,2.5157,2.5105,2.5106,2.5106,0,2.5184,2.518,2.519,2.5177,2.5176,2.518,2.5174,2.5173,2.5164,2.5157,2.5153,2.5138,2.5141,2.5124,2.5128,2.5118,2.5117,2.5111,2.5112,2.5111,2.5093,2.5121,2.5165,2.5169,2.5111,2.5111,2.511,0,2.5219,2.5215,2.522,2.5217,2.5202,2.5205,2.5198,2.5189,2.5187,2.5182,2.518,2.5175,2.5173,2.5169,2.5154,2.5143,2.516,2.5142,2.5154,2.5155,2.5159,2.5159,2.5204,2.5157,2.5157,2.5157,2.5157,0,2.525,2.5257,2.5236,2.5239,2.5247,2.5229,2.5236,2.5228,2.522,2.5221,2.5202,2.5204,2.5184,2.5183,2.5171,2.5177,2.5176,2.517,2.5167,2.5172,2.5173,2.5171,2.5169,2.5158,2.5158,2.5158,2.5158,0,2.529,2.5275,2.528,2.5266,2.5262,2.5268,2.5256,2.5258,2.5248,2.525,2.5249,2.5233,2.5231,2.5216,2.5211,2.5203,2.5213,2.5206,2.5216,2.5214,2.5228,2.5227,2.5273,2.5279,2.5229,2.5229,2.523,0,2.5311,2.5316,2.5302,2.5302,2.5297,2.5297,2.5295,2.5278,2.5277,2.5267,2.5271,2.5268,2.5265,2.5264,2.5251,2.5247,2.5241,2.5257,2.524,2.5245,2.5241,2.5242,2.5242,2.5261,2.5262,2.5262,2.5262,0,2.5351,2.5344,2.5342,2.5338,2.5336,2.5332,2.5327,2.5328,2.5309,2.5308,2.5307,2.5305,2.53,2.5298,2.5292,2.5285,2.5271,2.5268,2.5271,2.5276,2.5282,2.528,2.5227,2.5267,2.5267,2.5266,2.5266,2.5266,2.5383,2.5386,2.5377,2.5376,2.537,2.5366,2.5368,2.5358,2.5357,2.5352,2.5341,2.5342,2.5333,2.5324,2.5318,2.5318,2.531,2.5314,2.5315,2.5316,2.5319,2.5282,2.5317,2.5317,2.5317,2.5317,2.5317,0,2.5422,2.5415,2.5414,2.5408,2.5407,2.5394,2.5387,2.5387,2.5388,2.5381,2.5379,2.5378,2.5375,2.5363,2.5359,2.5362,2.5355,2.5361,2.5361,2.536,2.5327,2.5325,2.5367,2.5367,2.5367,2.5367,2.5367,2.5367,2.5443,2.5449,2.544,2.5443,2.5436,2.5437,2.5435,2.543,2.5425,2.5425,2.5423,2.5415,2.5406,2.5401,2.5399,2.5395,2.5395,2.5403,2.5398,2.5367,2.5362,2.5358,2.5356,2.5403,2.5403,2.5431,2.5431,2.5431]}]]